Weather Roundup
Issued by NWS Chicago, IL

Home | Current Version | Previous Version | Text Only | Print | Product List | Glossary Off
Versions: 1 2 3 4 5 6 7 8 9 10 11 12 13 14 15 16 17 18 19 20 21 22 23 24 25 26 27 28 29 30 31 32 33 34 35 36 37 38 39 40 41 42 43 44 45 46 47 48 49 50

000
NZUS59 KLOT 310310
HRRLOT

CHICAGO AREA WEATHER ROUNDUP
NATIONAL WEATHER SERVICE CHICAGO/ROMEOVILLE IL
1000 PM CDT SAT AUG 30 2014

NOTE: "FAIR" INDICATES FEW OR NO CLOUDS BELOW 12,000 FEET WITH NO
SIGNIFICANT WEATHER AND/OR OBSTRUCTIONS TO VISIBILITY.

* THESE STATIONS ARE NOT UNDER NWS QUALITY CONTROL. THEY ALSO MAY NOT
  REPORT WEATHER SUCH AS PRECIPITATION OR FOG.

ILZ005-006-012>014-019>023-310400-
NORTHEAST ILLINOIS

CITY           SKY/WX    TMP DP  RH WIND       PRES   REMARKS
OHARE          PTCLDY    74  64  71 W5        29.90R
MIDWAY         MOCLDY    78  68  71 SW5       29.90R HX  80
AURORA         CLEAR     68  65  90 CALM      29.92R
LANSING*         N/A    N/A N/A N/A MISG        N/A
JOLIET*        PTCLDY    70  67  89 CALM      29.92S
WAUKEGAN       CLEAR     72  65  78 VRB3      29.89R
DUPAGE AIRPORT CLEAR     72  66  81 SW6       29.91R
WHEELING       CLEAR     76  65  68 CALM      29.91S
KANKAKEE*      MOCLDY    71  66  85 SW8       29.93S
MORRIS*        CLEAR     73  71  93 CALM      29.91S
LEWIS AIRPORT* PTCLDY    72  68  88 W3        29.91S
NORTHERLY IS     N/A     78  65  63 SW5         N/A  HX  80
$$

WIZ051-052-058>065-066-070>072-310400-
SOUTHEAST WISCONSIN

CITY           SKY/WX    TMP DP  RH WIND       PRES   REMARKS
MILWAUKEE      PTCLDY    73  67  81 W6        29.88R
KENOSHA*       CLEAR     70  67  90 SW6       29.90R
RACINE*        CLEAR     71  66  84 SW7       29.90R
BURLINGTON     CLEAR     64  64  97 SW5       29.90R
WAUKESHA       CLEAR     66  64  94 CALM      29.90S
WEST BEND      MOCLDY    66  63  88 W3        29.88S
$$

INZ001>003-010>013-019-020-310400-
NORTHWEST INDIANA

CITY           SKY/WX    TMP DP  RH WIND       PRES   REMARKS
GARY*          MOCLDY    75  70  86 SW3       29.91F
MICHIGAN CITY* NOT AVBL
RENSSELAER*    NOT AVBL
VALPARAISO     CLOUDY    71  70  96 S5        29.93S
$$

LMZ740>746-310400-
SOUTHERN LAKE MICHIGAN

STATION/POSITION TIME  SKY/WX   TEMP WIND        PRES    VSBY
                                AIR  DIR/SP/G
                 (UTC)          (F)  (DEG/KT/KT) (MB)    (MI)
HARRISON CRIB    0300            78  250/  8/ 10   N/A
BURNHAM HARBOR   0300            78  240/  6/  9   N/A
CALUMET HARBOR   0300            76  200/  5/  7 1011.5S
BURNS HARBOR     NOT AVBL
MICHIGAN CITY    0300            73  180/ 13/ 17   N/A
$$

ABBREVIATIONS USED IN REMARKS
   TC - TEMPERATURE IN CELSIUS
  WCI - WIND CHILL INDEX
   HX - HEAT INDEX
  VSB - VISIBILITY
$$


USA.gov is the U.S. government's official web portal to all federal, state and local government web resources and services.